Weather Service Report


721 
ASUS46 KSEW 300210
RWRWA 

WASHINGTON REGIONAL WEATHER ROUNDUP
NATIONAL WEATHER SERVICE SEATTLE WA
700 PM PDT WED JUN 29 2016

NOTE:"FAIR" INDICATES FEW OR NO CLOUDS BELOW 12,000 FEET WITH NO 
SIGNIFICANT WEATHER AND/OR OBSTRUCTIONS TO VISIBILITY.

WAZ505-507>509-300300-
SEATTLE, TACOMA, EVERETT, AND VICINITY
  
CITY           SKY/WX    TMP DP  RH WIND       PRES   REMARKS
EVERETT        SUNNY     69  56  62 VRB3      30.16F                  
BOEING FIELD   SUNNY     73  58  59 E7        30.14F                  
RENTON         SUNNY     72  56  57 CALM      30.14F                  
SEATAC AIRPORT MOSUNNY   70  57  63 S3        30.16F                  
JBLM-MCCHORD   SUNNY     73  59  60 W3        30.15F                  
PUYALLUP       FAIR      73  59  60 CALM      30.16S                  
BREMERTON      MOSUNNY   72  59  64 SE6       30.17S                  
JBLM-FT LEWIS  SUNNY     73  59  61 CALM      30.14F                  
TACOMA NARROWS MOSUNNY   70  56  61 VRB3      30.15F                  
$$
 
WAZ001-503-506-510-514-515-300300-
NORTH INTERIOR
  
CITY           SKY/WX    TMP DP  RH WIND       PRES   REMARKS
BELLINGHAM     SUNNY     66  54  65 S17G29    30.10F                  
FRIDAY HARBOR  SUNNY     65  53  65 SE5       30.11S                  
EASTSOUND      SUNNY     63  54  72 S15G22    30.07F                  
PORT ANGELES   SUNNY     60  50  69 NW20      30.16S                  
EDIZ HOOK      FAIR      56  50  80 W28G36    30.16R                  
PORT TOWNSEND  FAIR      63  54  72 NW6       30.16S                  
NAS WHIDBEY    MOSUNNY   60  50  69 SW14G23   30.20S                  
ARLINGTON      SUNNY     68  54  60 NW12      30.16F                  
BURLINGTON     SUNNY     63  54  72 S17G24    30.16F                  
$$
 
WAZ020-022-039-040-504-511-512-300300-
SOUTHWEST INTERIOR
  
CITY           SKY/WX    TMP DP  RH WIND       PRES   REMARKS
SHELTON        SUNNY     70  54  56 SW17      30.13R                  
OLYMPIA        SUNNY     70  54  56 SW14      30.14F                  
CHEHALIS       FAIR      70  55  60 VRB7      30.17S                  
KELSO          SUNNY     66  52  59 W10G18    30.20R                  
VANCOUVER      SUNNY     75  56  51 N8G16     30.12S                  
SCAPPOOSE, OR  SUNNY     75  53  46 W7        30.12S                  
PORTLAND, OR   MOSUNNY   76  56  49 N8        30.12S                  
$$
 
WAZ021-516-517-300300-
WASHINGTON COAST
  
CITY           SKY/WX    TMP DP  RH WIND       PRES   REMARKS
FORKS          CLOUDY    57  51  80 NW10      30.24S                  
HOQUIAM        SUNNY     60  52  74 W16G23    30.21F                  
ASTORIA, OR    CLOUDY    61  51  70 N13G24    30.24S                  
$$
 
WAZ019-023-024-040-518-519-300300-
CASCADE MOUNTAINS AND COLUMBIA GORGE
  
CITY           SKY/WX    TMP DP  RH WIND       PRES   REMARKS
STAMPEDE PASS  SUNNY     59  50  72 SW9       30.20R                  
TROUTDALE, OR  SUNNY     77  57  50 VRB5      30.11S                  
THE DALLES, OR NOT AVBL                                               
$$

WAZ026-027-041>044-520-521-300300-
EAST SLOPES
  
CITY           SKY/WX    TMP DP  RH WIND       PRES   REMARKS
OMAK           SUNNY     94  41  16 SW9       29.87F HX  90           
WENATCHEE      SUNNY     93  51  23 NW18      29.88S HX  90           
ELLENSBURG     SUNNY     80  50  34 NW26G37   29.97R                  
YAKIMA         SUNNY     93  44  18 NW15G23   29.90R                  
$$

WAZ028-034-035-300300-
COLUMBIA BASIN
  
CITY           SKY/WX    TMP DP  RH WIND       PRES   REMARKS
EPHRATA        SUNNY     93  47  20 S8        29.89S                  
MOSES LAKE     SUNNY     95  43  16 S6        29.89F HX  91           
PASCO          SUNNY     98  47  17 CALM      29.84F HX  94           
HERMISTON, OR  SUNNY     97  43  15 W7        29.86S HX  93           
$$

WAZ036>038-300300-
NORTHEAST WASHINGTON
  
CITY           SKY/WX    TMP DP  RH WIND       PRES   REMARKS
SPOKANE GEIGER MOSUNNY   91  35  13 W6        29.97S                  
SPOKANE FELTS  SUNNY     92  41  17 NW6       29.94F                  
FAIRCHILD AFB  SUNNY     89  41  18 SW3       29.98S                  
COEURDALENE,ID SUNNY     90  46  22 CALM      29.92F                  
DEER PARK      SUNNY     91  34  13 CALM      29.96F                  
$$

WAZ029>033-300300-
SOUTHEAST WASHINGTON
  
CITY           SKY/WX    TMP DP  RH WIND       PRES   REMARKS
PULLMAN        SUNNY     84  56  38 N3        29.99F                  
LEWISTON, ID   SUNNY     95  44  17 N8        29.89S HX  91           
WALLA WALLA    SUNNY     92  49  22 SW12      29.89R                  
PENDLETON, OR  SUNNY     92  43  18 W13       29.92R                  
$$
  

Return to Home page


Western Regional Climate Center, wrcc@dri.edu